Location: 22
(39.7117°N, 89.5929°W)
Time: 00:14:49
(UTC-05:00)

Envisat - Visible Passes

Search period start: 19 April 2026 00:00
Search period end: 29 April 2026 00:00
Orbit: 761 x 762 km, 98.4° (Epoch: 18 April)

Date Brightness Start Highest point End Pass type
(mag) Time Alt. Az. Time Alt. Az. Time Alt. Az.
19 Apr 5.5 02:14:25 10° ENE 02:16:08 12° E 02:16:08 12° E visible
19 Apr 2.8 03:50:53 10° N 03:55:56 71° WNW 03:56:16 68° WSW visible
20 Apr 3.6 03:13:11 10° NNE 03:18:07 50° E 03:18:07 50° E visible
20 Apr 4.5 04:53:06 10° NNW 04:56:38 19° WNW 04:58:15 17° W visible
21 Apr 4.9 02:36:14 10° NE 02:39:57 22° E 02:39:57 22° E visible
21 Apr 3.5 04:14:24 10° N 04:19:08 42° WNW 04:20:05 38° W visible
22 Apr 2.8 03:36:22 10° NNE 03:41:28 85° ESE 03:41:54 74° S visible
22 Apr 5.0 05:17:51 10° NW 05:19:38 12° WNW 05:21:24 10° W visible
23 Apr 4.1 02:58:54 10° NNE 03:03:33 36° E 03:03:45 36° ESE visible
23 Apr 4.2 04:38:10 10° NNW 04:42:17 26° WNW 04:43:53 22° W visible
24 Apr 5.3 02:22:28 10° NE 02:25:27 16° E 02:25:34 16° E visible
24 Apr 3.1 03:59:45 10° N 04:04:43 57° WNW 04:05:43 48° WSW visible
25 Apr 3.2 03:21:55 10° NNE 03:26:57 61° E 03:27:32 57° SE visible
25 Apr 4.7 05:02:19 10° NNW 05:05:20 16° WNW 05:07:40 12° W visible
26 Apr 4.6 02:44:44 10° NE 02:48:58 26° E 02:49:22 26° ESE visible
26 Apr 3.8 04:23:21 10° N 04:27:54 34° WNW 04:29:30 28° WSW visible
27 Apr 5.6 02:09:32 10° ENE 02:10:47 11° E 02:11:11 11° E visible
27 Apr 2.9 03:45:11 10° N 03:50:16 79° WNW 03:51:19 56° SSW visible
28 Apr 3.7 03:07:34 10° NNE 03:12:24 44° E 03:13:09 41° ESE visible
28 Apr 4.4 04:47:14 10° NNW 04:51:00 22° WNW 04:53:16 16° W visible
